Location: Helsinki
(60.1699°N, 24.9384°E)
Time: 22:50:07
(UTC+02:00)

Tiros 1 despin weight - All Passes

Search period start: 28 October 2020 00:00
Search period end: 07 November 2020 00:00
Orbit: 594 x 641 km, 48.2° (Epoch: 27 October)

Date Brightness Start Highest point End Pass type
(mag) Time Alt. Az. Time Alt. Az. Time Alt. Az.
28 Oct - 02:16:29 10° SSW 02:18:57 15° SSE 02:21:25 10° SE visible
28 Oct - 03:56:26 10° SW 03:59:21 17° S 04:02:16 10° SE visible
28 Oct - 05:38:12 10° SW 05:39:40 11° SSW 05:41:08 10° S visible
29 Oct - 02:32:06 10° SSW 02:34:57 17° S 02:37:48 10° SE visible
29 Oct - 04:12:41 10° SW 04:15:22 16° SSW 04:18:02 10° SSE visible
30 Oct - 01:08:31 10° S 01:10:37 13° SSE 01:12:42 10° SE night (unlit)
30 Oct - 02:48:01 10° SW 02:50:58 18° S 02:53:55 10° SE visible
30 Oct - 04:29:12 10° SW 04:31:20 13° SSW 04:33:27 10° S visible
31 Oct - 01:23:53 10° SSW 01:26:35 16° SSE 01:29:15 10° SE night (unlit)
31 Oct - 03:04:06 10° SW 03:06:59 17° S 03:09:50 10° SSE visible
31 Oct - 04:46:52 10° SSW 04:47:15 10° SSW 04:47:38 10° SSW visible
01 Nov - 00:00:50 10° S 00:02:16 11° SSE 00:03:42 10° SE night (unlit)
01 Nov - 01:39:38 10° SW 01:42:35 17° S 01:45:31 10° SE night (unlit)
01 Nov - 03:20:27 10° SW 03:22:59 15° SSW 03:25:30 10° SSE visible
02 Nov - 00:15:46 10° SSW 00:18:12 14° SSE 00:20:38 10° SE night (unlit)
02 Nov - 01:55:37 10° SW 01:58:36 18° S 02:01:34 10° SE night (unlit)
02 Nov - 03:37:11 10° SW 03:38:55 12° SSW 03:40:40 10° S night (unlit)
03 Nov - 00:31:20 10° SSW 00:34:12 17° S 00:37:02 10° SE night (unlit)
03 Nov - 02:11:49 10° SW 02:14:36 16° S 02:17:23 10° SSE night (unlit)
03 Nov - 23:07:50 10° S 23:09:51 13° SSE 23:11:51 10° SE night (unlit)
04 Nov - 00:47:12 10° SW 00:50:12 18° S 00:53:11 10° SE night (unlit)
04 Nov - 02:28:16 10° SW 02:30:35 14° SSW 02:32:52 10° SSE night (unlit)
04 Nov - 23:23:07 10° SSW 23:25:49 16° SSE 23:28:29 10° SE night (unlit)
05 Nov - 01:03:15 10° SW 01:06:13 17° S 01:09:09 10° SE night (unlit)
05 Nov - 02:45:23 10° SW 02:46:30 11° SSW 02:47:37 10° SSW night (unlit)
05 Nov - 22:00:15 10° S 22:01:30 11° SSE 22:02:45 10° SE night (unlit)
05 Nov - 23:38:49 10° SW 23:41:48 17° S 23:44:46 10° SE night (unlit)
06 Nov - 01:19:33 10° SW 01:22:13 16° SSW 01:24:52 10° SSE night (unlit)
06 Nov - 22:15:01 10° SSW 22:17:26 14° SSE 22:19:49 10° SE night (unlit)
